Other Public Products
Issued by NWS Charleston, SC

Current Version | Previous Version | Text Only | Print | Product List | Glossary Off
Versions: 1 2 3 4 5 6 7 8 9 10 11 12 13 14 15 16 17 18 19 20 21 22 23 24 25 26 27 28 29 30 31 32 33 34 35 36 37 38 39 40 41 42 43 44 45 46 47 48 49 50

439
FPUS82 KCHS 232212
OPUCHS

TEST...KCHS/KSAV Gateway Observations...TEST
National Weather Service Charleston SC
600 PM EDT WED AUG 23 2017

NOTE: "fair" indicates few or no clouds below 12,000 feet with no
significant weather and/or obstructions to visibility.

SCZ050-WAZ558-NCZ071-TXZ119-213-PAZ071-DCZ001-FLZ074-172-MI076-
NYZ176-178-MAZ016-IL014-TNZ027-NJZ106-GAZ044-MD014-232300-

...Gateway Observations for Charleston International...

CITY           SKY/WX    TMP DP  RH WIND       PRES   REMARKS
Chas Airport   MOSUNNY   89  77  67 S14       29.82F HX 101
Seattle        PTSUNNY   70  58  65 VRB6      30.00F
Charlotte      PTSUNNY   85  72  65 N6        29.85F HX  91
Dallas DFW     PTSUNNY   90  70  51 VRB5      29.92F HX  95
Dallas Love    CLOUDY    90  69  50 NE6       29.92F HX  94
Philladelphia  MOSUNNY   81  53  37 NW13      29.85S
Wash National  MOSUNNY   84  60  44 N8        29.85S
Baltimore      MOSUNNY   82  60  47 N6        29.85S
Miami          LGT RAIN  81  77  88 E6        29.87F
Detroit        MOSUNNY   75  50  41 NW10      29.94S
Newark         MOSUNNY   81  51  35 NW14      29.83R
Laguardia      PTSUNNY   81  56  42 NW15      29.82S
J F K          PTSUNNY   82  54  37 NW8G18    29.83S
Boston Logan   PTSUNNY   81  51  35 W12       29.77R
Ft. Lauderdale CLOUDY    82  75  79 SE10      29.85F
Chicago O`Hare MOSUNNY   78  48  34 N13       30.00F
Chicago Midway PTSUNNY   75  57  53 E12       30.00F
Houston Bush   PTSUNNY   89  74  60 SE13      29.86F HX  98
Houston Hobby  PTSUNNY   92  73  53 E10       29.86F HX 100
Nashville      CLOUDY    81  57  43 N13G20    29.98F
Atlanta        MOSUNNY   87  66  49 NW8       29.90F

$$

GAZ044-118-TXZ119-213-NCZ071-DCZ001-MDZ014-506-PAZ021-071-NJZ106-
NYZ176-178-MAZ106-OHZ011-021-055-MIZ076-KYZ091-ILZ014-INZ047-
MNZ060-ONZ431-232300-

...Gateway Observations for Savannah International...

CITY           SKY/WX    TMP DP  RH WIND       PRES   REMARKS
Savannah Arpt  PTSUNNY   89  76  65 S13       29.83F THUNDER HX 100
Atlanta        MOSUNNY   87  66  49 NW8       29.90F
Charlotte      PTSUNNY   85  72  65 N6        29.85F HX  91
Dallas DFW     PTSUNNY   90  70  51 VRB5      29.92F HX  95
Houston Bush   PTSUNNY   89  74  60 SE13      29.86F HX  98
Wash National  MOSUNNY   84  60  44 N8        29.85S
Wash Dulles    MOSUNNY   81  61  50 N6        29.86S
Baltimore      MOSUNNY   82  60  47 N6        29.85S
Philadelphia   MOSUNNY   81  53  37 NW13      29.85S
Newark         MOSUNNY   81  51  35 NW14      29.83R
Laguardia      PTSUNNY   81  56  42 NW15      29.82S
J F K          PTSUNNY   82  54  37 NW8G18    29.83S
Boston         PTSUNNY   81  51  35 W12       29.77R
Pittsburg      MOSUNNY   75  52  44 W6        29.94F
Akron          MOSUNNY   76  51  41 NW9       29.96S
Cleveland      MOSUNNY   77  52  41 W16       29.96F
Cincinnati     MOSUNNY   77  54  44 N9        29.99F
Columbus       SUNNY     76  51  41 W10       29.97F
Detroit        MOSUNNY   75  50  41 NW10      29.94S
Chicago O`Hare MOSUNNY   78  48  34 N13       30.00F
Minneapolis    MOSUNNY   76  50  40 N9        30.04F
Indianapolis   MOSUNNY   75  49  39 NW12      30.01F
Toronto Canada MOSUNNY   70  48  46 NW20G25   29.88R

$$




USA.gov is the U.S. government's official web portal to all federal, state and local government web resources and services.